DAT SCTB-SCVM

Flight info

Callsign DAT
Flight time 1h 7m
Altitude 4500
Route DCT
Aircraft BE36/L-VGD/A

Departure

Time 2026-05-05 00:30
Airport Eulogio Sánchez Airport (SCTB)

Arrival

Time 2026-05-05 01:37
Airport Viña del Mar Airport (SCVM)
Time Latitude Longitude Altitude Speed Heading
2026-05-05 00:17 -33.45117 -70.54613 2146 ft 0 kts 93°
2026-05-05 00:26 -33.45118 -70.54601 2147 ft 6 kts 93°
2026-05-05 00:27 -33.45118 -70.54592 2148 ft 0 kts 93°
2026-05-05 00:28 -33.45118 -70.54591 2148 ft 0 kts 95°
2026-05-05 00:28 -33.45120 -70.54558 2149 ft 12 kts 97°
2026-05-05 00:28 -33.45165 -70.54533 2148 ft 9 kts 211°
2026-05-05 00:28 -33.45180 -70.54540 2149 ft 0 kts 195°
2026-05-05 00:29 -33.45240 -70.54558 2147 ft 37 kts 193°
2026-05-05 00:29 -33.45704 -70.54692 2149 ft 97 kts 193°
2026-05-05 00:29 -33.46458 -70.54894 2267 ft 121 kts 191°
2026-05-05 00:30 -33.47328 -70.55103 2552 ft 127 kts 190°
2026-05-05 00:30 -33.48143 -70.55341 3007 ft 120 kts 205°
2026-05-05 00:30 -33.48636 -70.56114 3257 ft 125 kts 265°
2026-05-05 00:30 -33.48416 -70.57162 3314 ft 142 kts 283°
2026-05-05 00:31 -33.48297 -70.58374 3338 ft 152 kts 275°
2026-05-05 00:31 -33.48317 -70.59597 3618 ft 143 kts 253°
2026-05-05 00:31 -33.48775 -70.60649 3824 ft 141 kts 233°
2026-05-05 00:31 -33.49442 -70.61514 4000 ft 144 kts 214°
2026-05-05 00:32 -33.50408 -70.62075 3923 ft 154 kts 223°
2026-05-05 00:32 -33.50432 -70.63179 4145 ft 147 kts 306°
2026-05-05 00:32 -33.49590 -70.63929 4067 ft 159 kts 334°
2026-05-05 00:32 -33.48725 -70.64767 4092 ft 162 kts 306°
2026-05-05 00:33 -33.48113 -70.65914 4090 ft 165 kts 306°
2026-05-05 00:33 -33.47684 -70.66653 4228 ft 159 kts 304°
2026-05-05 00:33 -33.47272 -70.68404 4026 ft 178 kts 270°
2026-05-05 00:33 -33.47379 -70.69384 4018 ft 176 kts 257°
2026-05-05 00:34 -33.48096 -70.71144 3881 ft 182 kts 227°
2026-05-05 00:34 -33.48769 -70.71724 3892 ft 177 kts 204°
2026-05-05 00:34 -33.50350 -70.72047 3957 ft 170 kts 182°
2026-05-05 00:34 -33.51149 -70.72074 3956 ft 170 kts 179°
2026-05-05 00:35 -33.52319 -70.72062 3967 ft 170 kts 178°
2026-05-05 00:35 -33.53497 -70.72102 3969 ft 171 kts 184°
2026-05-05 00:35 -33.55141 -70.72552 3569 ft 187 kts 207°
2026-05-05 00:35 -33.55817 -70.73205 3507 ft 184 kts 230°
2026-05-05 00:36 -33.56433 -70.74557 3186 ft 191 kts 246°
2026-05-05 00:36 -33.56926 -70.76030 3016 ft 188 kts 248°
2026-05-05 00:36 -33.57281 -70.77505 2938 ft 182 kts 261°
2026-05-05 00:36 -33.57292 -70.78976 3011 ft 172 kts 277°
2026-05-05 00:37 -33.57044 -70.80385 2976 ft 173 kts 285°
2026-05-05 00:37 -33.56707 -70.81762 2868 ft 178 kts 289°
2026-05-05 00:37 -33.56334 -70.83157 2909 ft 172 kts 287°
2026-05-05 00:37 -33.55996 -70.84503 2961 ft 169 kts 288°
2026-05-05 00:38 -33.55680 -70.85858 2987 ft 168 kts 286°
2026-05-05 00:38 -33.55362 -70.87172 3120 ft 162 kts 287°
2026-05-05 00:38 -33.55005 -70.88436 3236 ft 161 kts 291°
2026-05-05 00:38 -33.54551 -70.89706 3172 ft 170 kts 296°
2026-05-05 00:39 -33.54008 -70.90988 3151 ft 171 kts 302°
2026-05-05 00:39 -33.53333 -70.92128 3219 ft 169 kts 308°
2026-05-05 00:39 -33.52599 -70.93226 3231 ft 169 kts 311°
2026-05-05 00:39 -33.51868 -70.94328 3189 ft 170 kts 308°
2026-05-05 00:40 -33.51135 -70.95443 3168 ft 170 kts 311°
2026-05-05 00:40 -33.50381 -70.96525 3118 ft 172 kts 310°
2026-05-05 00:40 -33.49607 -70.97622 3138 ft 172 kts 311°
2026-05-05 00:40 -33.48830 -70.98731 3097 ft 173 kts 312°
2026-05-05 00:41 -33.48054 -70.99809 3144 ft 170 kts 310°
2026-05-05 00:41 -33.47311 -71.00916 3086 ft 172 kts 309°
2026-05-05 00:41 -33.46595 -71.02067 3096 ft 173 kts 306°
2026-05-05 00:41 -33.45927 -71.03251 3111 ft 172 kts 302°
2026-05-05 00:42 -33.45292 -71.04439 3123 ft 169 kts 305°
2026-05-05 00:42 -33.44593 -71.05604 3059 ft 174 kts 306°
2026-05-05 00:42 -33.43864 -71.06787 2884 ft 181 kts 309°
2026-05-05 00:42 -33.42971 -71.07906 2576 ft 189 kts 317°
2026-05-05 00:43 -33.42034 -71.09030 2167 ft 196 kts 311°
2026-05-05 00:43 -33.41253 -71.10380 1784 ft 196 kts 293°
2026-05-05 00:43 -33.41139 -71.11934 1667 ft 186 kts 260°
2026-05-05 00:43 -33.41167 -71.13443 1612 ft 180 kts 274°
2026-05-05 00:44 -33.41622 -71.14638 1871 ft 156 kts 199°
2026-05-05 00:44 -33.42365 -71.14012 1581 ft 176 kts 81°
2026-05-05 00:44 -33.41409 -71.13446 1464 ft 177 kts 339°
2026-05-05 00:44 -33.40959 -71.14644 1493 ft 165 kts 269°
2026-05-05 00:45 -33.40787 -71.15841 1534 ft 128 kts 304°
2026-05-05 00:45 -33.40445 -71.16658 1486 ft 98 kts 272°
2026-05-05 00:45 -33.40762 -71.17349 1238 ft 108 kts 200°
2026-05-05 00:45 -33.41339 -71.16991 1264 ft 100 kts 116°
2026-05-05 00:46 -33.41575 -71.16223 1347 ft 95 kts 95°
2026-05-05 00:46 -33.41191 -71.15765 1377 ft 96 kts 342°
2026-05-05 00:46 -33.40849 -71.16436 1344 ft 102 kts 286°
2026-05-05 00:46 -33.40586 -71.17173 1372 ft 84 kts 293°
2026-05-05 00:47 -33.40565 -71.17792 1064 ft 76 kts 243°
2026-05-05 00:47 -33.40970 -71.17949 914 ft 73 kts 134°
2026-05-05 00:47 -33.41051 -71.17346 786 ft 78 kts 106°
2026-05-05 00:47 -33.41216 -71.16756 682 ft 63 kts 108°
2026-05-05 00:48 -33.41404 -71.16096 753 ft 102 kts 108°
2026-05-05 00:48 -33.41621 -71.15255 1084 ft 109 kts 104°
2026-05-05 00:48 -33.41660 -71.14376 1502 ft 107 kts 74°
2026-05-05 00:48 -33.41119 -71.13890 1812 ft 114 kts 345°
2026-05-05 00:49 -33.40933 -71.14788 1525 ft 151 kts 239°
2026-05-05 00:49 -33.40904 -71.15914 1858 ft 143 kts 290°
2026-05-05 00:49 -33.40727 -71.17070 2047 ft 138 kts 254°
2026-05-05 00:49 -33.41494 -71.17641 1929 ft 151 kts 161°
2026-05-05 00:50 -33.41856 -71.16652 2154 ft 136 kts 79°
2026-05-05 00:50 -33.41856 -71.15556 2420 ft 126 kts 89°
2026-05-05 00:50 -33.41848 -71.14435 2434 ft 138 kts 85°
2026-05-05 00:50 -33.41449 -71.13564 2634 ft 129 kts 17°
2026-05-05 00:51 -33.40867 -71.14208 2476 ft 142 kts 265°
2026-05-05 00:51 -33.41047 -71.15328 2744 ft 132 kts 250°
2026-05-05 00:51 -33.41283 -71.16328 3074 ft 118 kts 257°
2026-05-05 00:51 -33.41488 -71.17279 3298 ft 118 kts 257°
2026-05-05 00:52 -33.41666 -71.18250 3497 ft 120 kts 261°
2026-05-05 00:52 -33.41804 -71.19247 3725 ft 118 kts 262°
2026-05-05 00:52 -33.41985 -71.20209 3886 ft 125 kts 258°
2026-05-05 00:52 -33.42233 -71.21180 4145 ft 120 kts 256°
2026-05-05 00:53 -33.42490 -71.22202 4129 ft 137 kts 250°
2026-05-05 00:53 -33.42905 -71.23186 4384 ft 127 kts 241°
2026-05-05 00:53 -33.43413 -71.24080 4486 ft 136 kts 239°
2026-05-05 00:53 -33.43948 -71.25047 4513 ft 146 kts 237°
2026-05-05 00:54 -33.44578 -71.26071 4464 ft 152 kts 234°
2026-05-05 00:54 -33.45190 -71.27041 4576 ft 149 kts 238°
2026-05-05 00:54 -33.45796 -71.28081 4522 ft 153 kts 236°
2026-05-05 00:54 -33.46449 -71.29098 4503 ft 154 kts 236°
2026-05-05 00:55 -33.47095 -71.30108 4510 ft 153 kts 234°
2026-05-05 00:55 -33.47768 -71.31099 4512 ft 154 kts 231°
2026-05-05 00:55 -33.48472 -71.32058 4504 ft 154 kts 233°
2026-05-05 00:55 -33.49153 -71.33055 4485 ft 154 kts 234°
2026-05-05 00:56 -33.49807 -71.34084 4441 ft 154 kts 236°
2026-05-05 00:56 -33.50417 -71.35113 4404 ft 154 kts 238°
2026-05-05 00:56 -33.51049 -71.36156 4410 ft 154 kts 236°
2026-05-05 00:56 -33.51717 -71.37159 4483 ft 153 kts 231°
2026-05-05 00:57 -33.52481 -71.38082 4439 ft 159 kts 225°
2026-05-05 00:57 -33.53285 -71.38927 4410 ft 149 kts 225°
2026-05-05 00:57 -33.54107 -71.39665 4215 ft 149 kts 211°
2026-05-05 00:57 -33.55058 -71.40128 4032 ft 151 kts 194°
2026-05-05 00:58 -33.56064 -71.40200 4048 ft 137 kts 171°
2026-05-05 00:58 -33.56973 -71.39910 3955 ft 139 kts 164°
2026-05-05 00:58 -33.57912 -71.39665 3897 ft 137 kts 169°
2026-05-05 00:58 -33.58875 -71.39499 3750 ft 143 kts 171°
2026-05-05 00:59 -33.59870 -71.39319 3575 ft 147 kts 169°
2026-05-05 00:59 -33.60829 -71.39467 3496 ft 139 kts 212°
2026-05-05 00:59 -33.61391 -71.40353 3412 ft 134 kts 258°
2026-05-05 00:59 -33.61349 -71.41404 3424 ft 124 kts 281°
2026-05-05 01:00 -33.61216 -71.42433 3388 ft 123 kts 283°
2026-05-05 01:00 -33.61040 -71.43436 3380 ft 121 kts 287°
2026-05-05 01:00 -33.60777 -71.44408 3255 ft 129 kts 291°
2026-05-05 01:00 -33.60480 -71.45426 3197 ft 128 kts 292°
2026-05-05 01:01 -33.60176 -71.46438 3094 ft 130 kts 291°
2026-05-05 01:01 -33.59875 -71.47465 2976 ft 131 kts 291°
2026-05-05 01:01 -33.59571 -71.48452 2971 ft 126 kts 290°
2026-05-05 01:01 -33.59436 -71.49456 3012 ft 122 kts 267°
2026-05-05 01:02 -33.59664 -71.50421 3031 ft 121 kts 240°
2026-05-05 01:02 -33.60087 -71.51283 3050 ft 121 kts 242°
2026-05-05 01:02 -33.60494 -71.52170 3067 ft 121 kts 244°
2026-05-05 01:02 -33.60896 -71.53040 3064 ft 123 kts 242°
2026-05-05 01:03 -33.61332 -71.53939 3039 ft 125 kts 241°
2026-05-05 01:03 -33.61779 -71.54827 3045 ft 123 kts 238°
2026-05-05 01:03 -33.62339 -71.55601 3042 ft 124 kts 213°
2026-05-05 01:03 -33.63162 -71.55787 3033 ft 124 kts 167°
2026-05-05 01:04 -33.63864 -71.55240 3032 ft 121 kts 122°
2026-05-05 01:04 -33.63666 -71.53451 2971 ft 120 kts 52°
2026-05-05 01:04 -33.63161 -71.52647 2799 ft 122 kts 53°
2026-05-05 01:05 -33.62668 -71.51815 2629 ft 121 kts 53°
2026-05-05 01:05 -33.62175 -71.50985 2387 ft 123 kts 56°
2026-05-05 01:05 -33.61704 -71.50138 2178 ft 121 kts 57°
2026-05-05 01:05 -33.61245 -71.49292 2021 ft 117 kts 57°
2026-05-05 01:06 -33.60830 -71.48490 1946 ft 110 kts 56°
2026-05-05 01:06 -33.60233 -71.47987 1894 ft 107 kts 11°
2026-05-05 01:06 -33.59507 -71.48133 1833 ft 109 kts 328°
2026-05-05 01:06 -33.59044 -71.48806 1865 ft 104 kts 289°
2026-05-05 01:07 -33.59121 -71.49620 1928 ft 95 kts 237°
2026-05-05 01:07 -33.59449 -71.50280 1993 ft 92 kts 241°
2026-05-05 01:07 -33.59747 -71.50946 2091 ft 90 kts 240°
2026-05-05 01:07 -33.60091 -71.51629 2086 ft 98 kts 238°
2026-05-05 01:08 -33.60460 -71.52324 2061 ft 102 kts 237°
2026-05-05 01:08 -33.60835 -71.53034 1920 ft 97 kts 238°
2026-05-05 01:08 -33.61185 -71.53705 1738 ft 93 kts 236°
2026-05-05 01:08 -33.61538 -71.54287 1546 ft 80 kts 235°
2026-05-05 01:09 -33.61860 -71.54835 1545 ft 80 kts 238°
2026-05-05 01:09 -33.62181 -71.55420 1422 ft 84 kts 233°
2026-05-05 01:09 -33.62515 -71.55971 1330 ft 83 kts 234°
2026-05-05 01:09 -33.62869 -71.56553 1148 ft 86 kts 235°
2026-05-05 01:10 -33.63200 -71.57145 998 ft 85 kts 238°
2026-05-05 01:10 -33.63510 -71.57722 928 ft 82 kts 238°
2026-05-05 01:10 -33.63821 -71.58305 850 ft 84 kts 236°
2026-05-05 01:10 -33.64186 -71.58878 733 ft 88 kts 236°
2026-05-05 01:11 -33.64517 -71.59502 591 ft 89 kts 236°
2026-05-05 01:11 -33.64850 -71.60110 479 ft 88 kts 238°
2026-05-05 01:11 -33.65173 -71.60726 376 ft 87 kts 233°
2026-05-05 01:11 -33.65511 -71.61310 253 ft 84 kts 233°
2026-05-05 01:12 -33.65765 -71.61756 241 ft 43 kts 236°
2026-05-05 01:12 -33.65846 -71.61776 240 ft 17 kts 46°
2026-05-05 01:12 -33.65742 -71.61656 243 ft 29 kts 49°
2026-05-05 01:12 -33.65588 -71.61388 246 ft 45 kts 57°
2026-05-05 01:13 -33.65494 -71.61219 248 ft 0 kts 54°
2026-05-05 01:13 -33.65475 -71.61214 247 ft 20 kts 355°
2026-05-05 01:13 -33.65503 -71.61348 246 ft 8 kts 165°
2026-05-05 01:14 -33.65505 -71.61347 246 ft 0 kts 155°
2026-05-05 01:14 -33.65494 -71.61327 246 ft 10 kts 51°
2026-05-05 01:14 -33.65478 -71.61300 246 ft 0 kts 59°
2026-05-05 01:15 -33.65478 -71.61299 246 ft 0 kts 59°
2026-05-05 01:15 -33.65474 -71.61291 246 ft 0 kts 60°
2026-05-05 01:15 -33.65453 -71.61252 246 ft 12 kts 53°
2026-05-05 01:15 -33.65450 -71.61186 249 ft 1 kts 161°
2026-05-05 01:16 -33.65461 -71.61195 248 ft 6 kts 240°
2026-05-05 01:16 -33.65462 -71.61196 247 ft 0 kts 240°
2026-05-05 01:18 -33.65528 -71.61330 247 ft 56 kts 236°
2026-05-05 01:18 -33.65848 -71.61945 313 ft 108 kts 239°
2026-05-05 01:19 -33.66304 -71.62607 819 ft 105 kts 231°
2026-05-05 01:19 -33.66775 -71.63316 1276 ft 106 kts 237°
2026-05-05 01:19 -33.66947 -71.64142 1751 ft 109 kts 277°
2026-05-05 01:19 -33.66531 -71.64918 2081 ft 117 kts 331°
2026-05-05 01:20 -33.65760 -71.64965 2553 ft 109 kts 18°
2026-05-05 01:20 -33.65095 -71.64583 2971 ft 108 kts 27°
2026-05-05 01:20 -33.64439 -71.64132 3345 ft 107 kts 31°
2026-05-05 01:20 -33.63820 -71.63647 3679 ft 108 kts 31°
2026-05-05 01:21 -33.63180 -71.63139 3962 ft 111 kts 28°
2026-05-05 01:21 -33.62454 -71.62823 4180 ft 120 kts 15°
2026-05-05 01:21 -33.61688 -71.62493 4485 ft 118 kts 19°
2026-05-05 01:21 -33.60838 -71.62132 4457 ft 138 kts 14°
2026-05-05 01:22 -33.59893 -71.61894 4522 ft 145 kts
2026-05-05 01:22 -33.58821 -71.61678 4285 ft 163 kts
2026-05-05 01:22 -33.57689 -71.61534 4217 ft 165 kts
2026-05-05 01:22 -33.56553 -71.61455 4198 ft 163 kts
2026-05-05 01:23 -33.55458 -71.61335 4212 ft 163 kts
2026-05-05 01:23 -33.54327 -71.61102 4161 ft 165 kts 12°
2026-05-05 01:23 -33.53205 -71.60800 4132 ft 164 kts 11°
2026-05-05 01:23 -33.52098 -71.60494 4088 ft 165 kts 12°
2026-05-05 01:24 -33.50971 -71.60262 4087 ft 163 kts
2026-05-05 01:24 -33.49869 -71.60036 4072 ft 162 kts
2026-05-05 01:24 -33.48734 -71.59910 4002 ft 164 kts
2026-05-05 01:24 -33.47599 -71.59807 4009 ft 162 kts
2026-05-05 01:25 -33.46493 -71.59620 3990 ft 162 kts 10°
2026-05-05 01:25 -33.45395 -71.59321 4018 ft 161 kts 13°
2026-05-05 01:25 -33.44314 -71.59000 4000 ft 162 kts 13°
2026-05-05 01:25 -33.43219 -71.58657 4023 ft 162 kts 14°
2026-05-05 01:26 -33.42133 -71.58287 4077 ft 162 kts 15°
2026-05-05 01:26 -33.41054 -71.57943 4099 ft 162 kts 12°
2026-05-05 01:26 -33.39948 -71.57658 4141 ft 162 kts 10°
2026-05-05 01:26 -33.38822 -71.57457 4148 ft 163 kts
2026-05-05 01:27 -33.37710 -71.57222 4181 ft 163 kts 12°
2026-05-05 01:27 -33.36590 -71.56904 4159 ft 166 kts 13°
2026-05-05 01:27 -33.35487 -71.56599 4206 ft 163 kts 11°
2026-05-05 01:27 -33.34363 -71.56367 4215 ft 164 kts
2026-05-05 01:28 -33.33229 -71.56124 4213 ft 165 kts
2026-05-05 01:28 -33.32108 -71.55883 4213 ft 165 kts
2026-05-05 01:28 -33.30964 -71.55697 4221 ft 165 kts
2026-05-05 01:28 -33.29831 -71.55481 4185 ft 167 kts
2026-05-05 01:29 -33.28669 -71.55232 4117 ft 170 kts 10°
2026-05-05 01:29 -33.27517 -71.54978 4058 ft 171 kts 10°
2026-05-05 01:29 -33.26338 -71.54718 4007 ft 172 kts 10°
2026-05-05 01:29 -33.25168 -71.54462 4009 ft 169 kts 10°
2026-05-05 01:30 -33.24018 -71.54209 4009 ft 169 kts 10°
2026-05-05 01:30 -33.22868 -71.53957 4008 ft 168 kts 10°
2026-05-05 01:30 -33.22101 -71.53789 4004 ft 168 kts
2026-05-05 01:30 -33.20567 -71.53453 4001 ft 168 kts
2026-05-05 01:31 -33.19421 -71.53202 4010 ft 169 kts 10°
2026-05-05 01:31 -33.18637 -71.53031 4001 ft 169 kts 10°
2026-05-05 01:31 -33.17488 -71.52778 3999 ft 169 kts
2026-05-05 01:31 -33.15948 -71.52441 4002 ft 169 kts 10°
2026-05-05 01:32 -33.15172 -71.52271 4002 ft 169 kts
2026-05-05 01:32 -33.14008 -71.52017 4003 ft 169 kts 10°
2026-05-05 01:32 -33.12859 -71.51765 4003 ft 170 kts 10°
2026-05-05 01:32 -33.11686 -71.51508 4001 ft 170 kts 10°
2026-05-05 01:33 -33.10542 -71.51259 3993 ft 169 kts 10°
2026-05-05 01:33 -33.09380 -71.51004 3952 ft 171 kts 10°
2026-05-05 01:33 -33.08183 -71.50742 3804 ft 177 kts 10°
2026-05-05 01:33 -33.06969 -71.50478 3653 ft 180 kts
2026-05-05 01:34 -33.05714 -71.50205 3515 ft 182 kts 10°
2026-05-05 01:34 -33.04472 -71.49932 3372 ft 183 kts 10°
2026-05-05 01:34 -33.03221 -71.49657 3211 ft 184 kts 10°
2026-05-05 01:34 -33.01952 -71.49380 3062 ft 185 kts 10°
2026-05-05 01:35 -33.00692 -71.49105 2928 ft 185 kts
2026-05-05 01:35 -32.99433 -71.49268 2766 ft 173 kts 343°
2026-05-05 01:35 -32.98368 -71.49723 2416 ft 155 kts 338°
2026-05-05 01:35 -32.97407 -71.50186 2054 ft 143 kts 338°
2026-05-05 01:36 -32.96516 -71.50643 1753 ft 131 kts 332°
2026-05-05 01:36 -32.95781 -71.50831 1688 ft 94 kts 22°
2026-05-05 01:36 -32.95530 -71.50240 1184 ft 88 kts 100°
2026-05-05 01:36 -32.95633 -71.49569 824 ft 78 kts 98°
2026-05-05 01:37 -32.95586 -71.48958 551 ft 76 kts 78°
2026-05-05 01:37 -32.95318 -71.48414 460 ft 66 kts 53°
2026-05-05 01:37 -32.95090 -71.48054 450 ft 47 kts 52°
2026-05-05 01:37 -32.94938 -71.47831 444 ft 19 kts 31°
2026-05-05 01:38 -32.94881 -71.47866 446 ft 8 kts 311°
2026-05-05 01:38 -32.94832 -71.47917 447 ft 12 kts 322°
2026-05-05 01:38 -32.94783 -71.47988 447 ft 9 kts 246°
2026-05-05 01:38 -32.94841 -71.48017 448 ft 10 kts 220°
2026-05-05 01:39 -32.94853 -71.48049 449 ft 0 kts 289°
2026-05-05 01:39 -32.94849 -71.48058 449 ft 0 kts 307°
2026-05-05 01:39 -32.94848 -71.48059 449 ft 0 kts 318°